• In Hungary
  • List of Countries
  • For 7 days
  • Water Temperature
  • Satellite Maps
  • Weather Map
  • News
  • Weather Widgets
  • user-avatar
    Login

    Hourly Weather Demyanki

    Today, 17 October, Wednesday

    Time Temperature Precipitation Wind Pressure Humidity
    00:00 +14°C° 0 mm 1 mps 756 mmHg 80%
    01:00 +13°C° 0 mm 1 mps 756 mmHg 82%
    02:00 +12°C° 0 mm 1 mps 756 mmHg 85%
    03:00 +12°C° 0 mm 1 mps 756 mmHg 86%
    04:00 +12°C° 0 mm 1 mps 756 mmHg 86%
    05:00 +12°C° 0 mm 1 mps 756 mmHg 87%
    06:00 +12°C° 0 mm 1 mps 756 mmHg 85%
    07:00 +13°C° 0 mm 1 mps 756 mmHg 82%
    08:00 +14°C° 0 mm 1 mps 756 mmHg 77%
    09:00 +16°C° 0 mm 1 mps 756 mmHg 71%
    10:00 +18°C° 0 mm 1 mps 756 mmHg 65%
    11:00 +20°C° 0 mm 1 mps 756 mmHg 60%
    12:00 +21°C° 0 mm 1 mps 756 mmHg 57%
    13:00 +21°C° 0 mm 1 mps 756 mmHg 54%
    14:00 +23°C° 0 mm 1 mps 756 mmHg 51%
    15:00 +22°C° 0 mm 1 mps 756 mmHg 56%
    16:00 +20°C° 0 mm 1 mps 755 mmHg 62%
    17:00 +18°C° 0 mm 1 mps 755 mmHg 68%
    18:00 +18°C° 0 mm 1 mps 755 mmHg 70%
    19:00 +16°C° 0 mm 1 mps 755 mmHg 72%
    20:00 +16°C° 0 mm 1 mps 755 mmHg 74%
    21:00 +15°C° 0 mm 1 mps 755 mmHg 76%
    22:00 +15°C° 0 mm 1 mps 755 mmHg 77%
    23:00 +14°C° 0 mm 1 mps 755 mmHg 78%

    Tomorrow, 18 October, Thursday

    Time Temperature Precipitation Wind Pressure Humidity
    00:00 +14°C° 0 mm 1 mps 755 mmHg 79%
    01:00 +14°C° 0 mm 1 mps 755 mmHg 80%
    02:00 +14°C° 0 mm 1 mps 755 mmHg 81%
    03:00 +13°C° 0 mm 1 mps 755 mmHg 82%
    04:00 +13°C° 0 mm 1 mps 755 mmHg 83%
    05:00 +13°C° 0 mm 1 mps 754 mmHg 85%
    06:00 +13°C° 0 mm 1 mps 754 mmHg 83%
    07:00 +14°C° 0 mm 1 mps 754 mmHg 81%
    08:00 +14°C° 0 mm 1 mps 754 mmHg 80%
    09:00 +16°C° 0 mm 1 mps 754 mmHg 73%
    10:00 +18°C° 0 mm 2 mps 754 mmHg 67%
    11:00 +19°C° 0 mm 2 mps 754 mmHg 61%
    12:00 +20°C° 0 mm 2 mps 754 mmHg 58%
    13:00 +21°C° 0 mm 2 mps 753 mmHg 56%
    14:00 +21°C° 0 mm 2 mps 753 mmHg 54%
    15:00 +20°C° 0 mm 2 mps 752 mmHg 59%
    16:00 +19°C° 0 mm 2 mps 752 mmHg 64%
    17:00 +18°C° 0 mm 1 mps 752 mmHg 69%
    18:00 +16°C° 0 mm 2 mps 752 mmHg 70%
    19:00 +16°C° 0 mm 2 mps 752 mmHg 72%
    20:00 +15°C° 0 mm 2 mps 752 mmHg 74%
    21:00 +14°C° 0 mm 2 mps 752 mmHg 75%
    22:00 +14°C° 0 mm 2 mps 751 mmHg 76%
    23:00 +13°C° 0 mm 2 mps 751 mmHg 78%

    Day after tomorrow, 19 October, Friday

    Time Temperature Precipitation Wind Pressure Humidity
    00:00 +13°C° 0 mm 2 mps 751 mmHg 79%
    01:00 +13°C° 0 mm 1 mps 751 mmHg 81%
    02:00 +12°C° 0 mm 1 mps 751 mmHg 82%
    03:00 +12°C° 0 mm 1 mps 751 mmHg 84%
    04:00 +12°C° 0 mm 1 mps 750 mmHg 85%
    05:00 +11°C° 0 mm 1 mps 750 mmHg 86%
    06:00 +12°C° 0 mm 1 mps 750 mmHg 84%
    07:00 +12°C° 0 mm 1 mps 750 mmHg 83%
    08:00 +12°C° 0 mm 0 mps 750 mmHg 81%
    09:00 +14°C° 0 mm 1 mps 750 mmHg 74%
    10:00 +16°C° 0 mm 1 mps 750 mmHg 68%
    11:00 +19°C° 0 mm 1 mps 750 mmHg 62%
    12:00 +19°C° 0 mm 1 mps 750 mmHg 59%
    13:00 +20°C° 0 mm 1 mps 750 mmHg 57%
    14:00 +20°C° 0 mm 1 mps 749 mmHg 55%
    15:00 +19°C° 0 mm 1 mps 749 mmHg 60%
    16:00 +18°C° 0 mm 1 mps 749 mmHg 65%
    17:00 +15°C° 0 mm 1 mps 749 mmHg 71%
    18:00 +15°C° 0 mm 2 mps 749 mmHg 74%
    19:00 +14°C° 0 mm 2 mps 750 mmHg 77%
    20:00 +13°C° 0 mm 2 mps 750 mmHg 80%
    21:00 +13°C° 0 mm 2 mps 750 mmHg 84%
    22:00 +12°C° 0 mm 2 mps 750 mmHg 87%
    23:00 +11°C° 0 mm 3 mps 750 mmHg 90%

    20 October, Saturday

    Time Temperature Precipitation Wind Pressure Humidity
    00:00 +10°C° 0 mm 3 mps 751 mmHg 91%
    01:00 +10°C° 0 mm 3 mps 751 mmHg 93%
    02:00 +9°C° 0 mm 3 mps 751 mmHg 94%
    03:00 +9°C° 0 mm 3 mps 751 mmHg 93%
    04:00 +8°C° 0 mm 3 mps 752 mmHg 92%
    05:00 +8°C° 0 mm 3 mps 752 mmHg 92%
    06:00 +7°C° 0 mm 3 mps 752 mmHg 88%
    07:00 +7°C° 0 mm 3 mps 753 mmHg 85%
    08:00 +7°C° 0 mm 3 mps 753 mmHg 82%
    09:00 +9°C° 0 mm 3 mps 753 mmHg 74%
    10:00 +10°C° 0 mm 3 mps 753 mmHg 65%
    11:00 +11°C° 0 mm 3 mps 753 mmHg 57%
    12:00 +12°C° 0 mm 3 mps 753 mmHg 54%
    13:00 +12°C° 0 mm 3 mps 753 mmHg 52%
    14:00 +13°C° 0 mm 3 mps 753 mmHg 49%
    15:00 +12°C° 0 mm 2 mps 753 mmHg 54%
    16:00 +10°C° 0 mm 2 mps 753 mmHg 59%
    17:00 +9°C° 0 mm 2 mps 753 mmHg 64%
    18:00 +8°C° 0 mm 2 mps 753 mmHg 67%
    19:00 +8°C° 0 mm 1 mps 753 mmHg 69%
    20:00 +8°C° 0 mm 1 mps 753 mmHg 72%
    21:00 +7°C° 0 mm 1 mps 753 mmHg 73%
    22:00 +7°C° 0 mm 1 mps 753 mmHg 75%
    23:00 +6°C° 0 mm 1 mps 753 mmHg 77%

    21 October, Sunday

    Time Temperature Precipitation Wind Pressure Humidity
    00:00 +6°C° 0 mm 1 mps 753 mmHg 78%
    01:00 +6°C° 0 mm 1 mps 753 mmHg 80%
    02:00 +5°C° 0 mm 1 mps 752 mmHg 81%
    03:00 +5°C° 0 mm 1 mps 752 mmHg 82%
    04:00 +5°C° 0 mm 1 mps 752 mmHg 84%
    05:00 +5°C° 0 mm 1 mps 752 mmHg 85%
    06:00 +5°C° 0 mm 1 mps 752 mmHg 83%
    07:00 +6°C° 0 mm 1 mps 752 mmHg 82%
    08:00 +6°C° 0 mm 1 mps 753 mmHg 80%
    09:00 +6°C° 0 mm 2 mps 753 mmHg 74%
    10:00 +8°C° 0 mm 2 mps 753 mmHg 68%
    11:00 +9°C° 0 mm 2 mps 753 mmHg 62%
    12:00 +10°C° 0 mm 2 mps 753 mmHg 60%
    13:00 +10°C° 0 mm 3 mps 753 mmHg 58%
    14:00 +11°C° 0 mm 3 mps 753 mmHg 56%
    15:00 +10°C° 0 mm 3 mps 753 mmHg 61%
    16:00 +8°C° 0 mm 2 mps 753 mmHg 67%
    17:00 +7°C° 0 mm 2 mps 753 mmHg 73%
    18:00 +7°C° 0 mm 2 mps 754 mmHg 76%
    19:00 +6°C° 0 mm 2 mps 754 mmHg 79%
    20:00 +6°C° 0 mm 2 mps 754 mmHg 82%
    21:00 +5°C° 0 mm 2 mps 755 mmHg 84%
    22:00 +5°C° 0 mm 2 mps 755 mmHg 86%
    23:00 +5°C° 0 mm 2 mps 755 mmHg 88%

    22 October, Monday

    Time Temperature Precipitation Wind Pressure Humidity
    00:00 +4°C° 0 mm 2 mps 755 mmHg 89%
    01:00 +4°C° 0 mm 2 mps 755 mmHg 89%
    02:00 +4°C° 0 mm 2 mps 755 mmHg 90%
    03:00 +5°C° 0 mm 1 mps 755 mmHg 91%
    04:00 +4°C° 0 mm 1 mps 755 mmHg 91%
    05:00 +4°C° 0 mm 1 mps 755 mmHg 91%
    06:00 +5°C° 0 mm 1 mps 755 mmHg 89%
    07:00 +5°C° 0 mm 1 mps 755 mmHg 87%
    08:00 +6°C° 0 mm 1 mps 755 mmHg 85%
    09:00 +7°C° 0 mm 1 mps 755 mmHg 78%
    10:00 +8°C° 0 mm 0 mps 755 mmHg 71%
    11:00 +10°C° 0 mm 0 mps 755 mmHg 64%
    12:00 +11°C° 0 mm 1 mps 754 mmHg 60%
    13:00 +12°C° 0 mm 1 mps 754 mmHg 57%
    14:00 +12°C° 0 mm 1 mps 753 mmHg 54%
    15:00 +11°C° 0 mm 1 mps 753 mmHg 59%
    16:00 +10°C° 0 mm 1 mps 753 mmHg 63%
    17:00 +8°C° 0 mm 1 mps 752 mmHg 68%
    18:00 +8°C° 0 mm 1 mps 752 mmHg 70%
    19:00 +7°C° 0 mm 1 mps 752 mmHg 72%
    20:00 +7°C° 0 mm 1 mps 752 mmHg 74%
    21:00 +6°C° 0 mm 1 mps 751 mmHg 75%
    22:00 +6°C° 0 mm 1 mps 751 mmHg 76%
    23:00 +4°C° 0 mm 2 mps 751 mmHg 77%
    Show more